Regional Weather Roundup
Issued by NWS

Home | Current Version | Previous Version | Text Only | Print | Product List | Glossary Off
Versions: 1 2 3 4 5 6 7 8 9 10 11 12 13 14 15 16 17 18 19 20 21 22 23 24 25 26 27 28 29 30 31 32 33 34 35 36 37 38 39 40 41 42 43 44 45 46 47 48 49 50

000
ASUS44 KMEG 232110
RWRTN
TENNESSEE HOURLY STATE WEATHER ROUNDUP
NATIONAL WEATHER SERVICE MEMPHIS TN
400 PM CDT WED APR 23 2014

TNZ002-004-019-021-049-052-054-088>092-232200-
WEST TENNESSEE

CITY           SKY/WX    TMP DP  RH WIND       PRES   REMARKS
MEMPHIS INTL   MOSUNNY   77  32  19 VRB5      29.95F
NWS MEMPHIS      N/A     77 N/A N/A MISG        N/A
JACKSON        SUNNY     75  34  22 NE6       29.97F
DYERSBURG      SUNNY     72  37  28 E7        29.99F
UNION CITY     SUNNY     68  37  32 N8        29.99F
PARIS          SUNNY     67  35  30 E6        30.00F
LEXINGTON      SUNNY     72  32  23 NE10      29.97F
SAVANNAH       SUNNY     76  37  24 N7        29.96F
$$

TNZ008-025-027-028-033-062-065-066-232200-
NORTH MIDDLE TENNESSEE

CITY           SKY/WX    TMP DP  RH WIND       PRES   REMARKS
NASHVILLE      MOSUNNY   70  34  26 N7        30.00F
DICKSON        SUNNY     66  32  28 N8        30.00F
PORTLAND       SUNNY     64  32  29 N7        30.01F
CLARKSVILLE    SUNNY     66  34  30 CALM      30.01F
SMYRNA         SUNNY     70  33  25 VRB5      30.01F
MURFREESBORO   SUNNY     69  30  23 N9        29.99F
COOKEVILLE     SUNNY     68  34  28 VRB3      29.99F
LIVINGSTON     SUNNY     63  29  27 NE8       30.01F
GALLATIN       SUNNY     68  33  27 VRB3      30.01F
CROSSVILLE     SUNNY     66  24  20 NE8       29.99F
$$

TNZ061-075-076-078-094-096-097-232200-
SOUTH MIDDLE TENNESSEE

CITY           SKY/WX    TMP DP  RH WIND       PRES   REMARKS
LEWISBURG      SUNNY     69  36  29 N8        29.98F
FAYETTEVILLE   SUNNY     69  36  29 NE7       29.97F
TULLAHOMA      SUNNY     70  36  28 NW9       29.98F
WINCHESTER     SUNNY     70  37  30 N9        29.97F
MCMINNVILLE    SUNNY     68  36  30 NE10      29.99F
COLUMBIA       SUNNY     70  46  43 E6        29.97F
SHELBYVILLE    SUNNY     68  39  34 N8        30.00F
$$

TNZ017-018-042-046-047-232200-
NORTHEAST TENNESSEE

CITY           SKY/WX    TMP DP  RH WIND       PRES   REMARKS
TRI CITIES     MOSUNNY   68  20  16 NW10      29.94F
ELIZABETHTON   CLEAR     64  28  25 NW5G15    29.94F
$$

TNZ012-013-036-069-073-074-232200-
CENTRAL EAST TENNESSEE

CITY           SKY/WX    TMP DP  RH WIND       PRES   REMARKS
KNOXVILLE      SUNNY     68  31  25 VRB6      29.96F
OAK RIDGE      SUNNY     71  27  19 VRB3      29.96F
$$

TNZ083-085-099-232200-
SOUTHEAST TENNESSEE

CITY           SKY/WX    TMP DP  RH WIND       PRES   REMARKS
CHATTANOOGA    MOSUNNY   74  34  23 NE7       29.94F
$$

SKY/WX REPORTED AS FAIR MEANS FEW OR NO CLOUDS BELOW
12 THOUSAND FEET.




USA.gov is the U.S. government's official web portal to all federal, state and local government web resources and services.